Вернуться в каталог

FENGYUN 1C DEB

LostPO
NORAD 38723·DEBRIS·🇨🇳 China

Запущен May 10, 1999 с Taiyuan Satellite Launch Center

Loading…

Ближайшие Пролёты (ближайшие 24 часа)

TLE

УстаревшееSource: Space-Track

Эпоха: Aug 25, 2022, 14:25 UTC

1 38723U 99025ETQ 22237.60079847  .00001778  00000-0  63838-3 0  9999
2 38723  99.4651  17.4308 0040806 309.4857  50.2719 14.34860358598475

Отслеживайте FENGYUN 1C DEB в реальном времени с AllMySat

Download on the App Store